Sugarloaf Regional (B21)
Carrabassett, ME
Field Elevation: 885
Lat: 45°05.12N  Long: 70°12.98W
CTAF/Unicom Freq: 122.8000
   
    
Weather Advisories
11/26/2014 08:34 Z
Altimeter 30.12" Hg
Wind 340° @ 3 KT
Gusts --
Visibility 10 SM
Temperature 3° C (37° F)
Dewpoint -6° C (21° F)
Relative Humidity 53%
Density Altitude --
Condensation Altitude 5,300 feet
Wind Chill 2° C (36° F)
  Wind and Runways
Indicated Runway = 35
History
 
 
More Info
All DigiWx sites map
 
NOAA Forecast
 
Airport IQ 5010
(39N) Princeton, NJ
(PN44) Upper Gwynedd Heliport
 
about DigiWx
 
FAA Disclaimer: The data displayed is for advisory purposes only and is not to be used for flight planning or operations. For official data, please call (not available) to hear the current automated AWOS voice message.
  METAR B21 260834Z AUTO 34003KT 10SM 03/M06 A3012